GFSSGP_925_thetae_303.txt.gz
Theta_e
309 312 316 315 313 313 318 319 317 320 322 319 320 321 320 322 322 321 321 326 331 333 333 332 331 329 327 325 322 319 317 315 315 314 316 320 325 331 332 333 335 335 335 337 338 339 338 335 334
309 316 315 310 313 316 316 314 316 318 321 318 320 320 322 324 321 318 322 325 331 331 328 327 327 325 322 318 315 313 311 310 309 309 309 309 311 312 318 328 330 333 335 335 337 338 337 334 334
313 317 313 315 309 313 315 314 314 322 320 320 322 320 321 323 318 318 320 325 327 326 324 323 321 318 315 313 311 308 306 304 303 303 303 304 305 310 314 317 320 326 330 333 335 336 336 334 333
317 311 307 316 315 314 312 315 320 322 321 321 321 323 320 319 319 320 321 325 324 322 321 319 315 314 312 309 306 303 302 301 301 302 302 304 311 314 316 316 317 318 321 325 329 333 334 335 335
315 307 310 312 311 312 310 312 315 320 317 320 320 322 321 318 319 319 322 323 321 320 318 316 314 313 308 305 303 302 302 302 302 302 303 309 314 314 315 315 316 317 317 318 320 325 328 332 334
312 310 314 312 311 311 311 312 315 316 317 317 320 319 318 315 318 318 320 321 320 319 315 314 312 308 306 305 304 304 304 304 304 305 309 311 311 311 312 312 313 314 315 316 317 319 321 326 330
312 310 314 313 313 314 315 314 315 315 315 317 316 319 316 314 317 318 318 318 317 316 314 313 311 307 306 305 305 304 304 305 304 305 307 307 309 310 312 312 312 313 313 314 315 316 317 319 327
312 313 317 315 316 317 315 315 314 315 314 313 313 316 316 314 317 316 316 316 315 314 313 312 309 307 307 306 305 304 305 305 304 305 306 307 308 309 310 310 310 312 312 313 314 315 316 317 321
310 315 316 316 314 315 313 314 314 313 314 314 314 313 313 316 316 315 314 313 313 313 312 311 309 307 307 306 305 305 305 304 304 306 307 308 309 309 309 309 309 310 311 311 312 313 314 315 320
313 313 314 312 312 313 313 313 313 314 314 313 313 312 313 315 314 312 311 310 311 311 311 310 308 308 307 306 305 305 304 303 307 308 308 309 309 309 309 308 308 308 308 308 309 311 312 313 314
311 312 309 312 312 313 313 312 311 312 311 310 312 311 311 311 311 311 311 311 312 312 311 309 308 307 307 306 305 305 303 307 308 308 309 309 308 309 308 308 308 308 308 307 308 310 314 312 311
314 312 312 312 313 313 313 312 313 311 312 312 308 310 310 310 309 310 311 312 312 312 311 309 308 307 307 306 305 304 306 308 308 309 308 309 308 309 309 309 309 309 307 307 308 310 315 310 313
313 313 311 310 311 312 311 312 312 311 310 308 308 308 310 310 310 311 312 312 312 312 311 310 308 307 306 305 304 305 308 309 309 309 308 308 308 308 309 309 309 309 307 307 309 313 316 312 317
312 312 312 312 313 312 313 312 313 312 311 311 309 308 307 309 309 310 310 312 311 311 311 310 308 307 306 305 305 307 309 309 309 309 308 308 308 308 308 308 308 308 307 308 311 315 316 318 318
314 314 312 312 312 312 312 314 313 312 310 310 310 308 307 306 309 309 311 312 312 311 311 309 307 306 305 305 306 309 309 309 309 308 308 307 307 308 308 307 308 307 308 309 315 316 317 318 320
314 313 315 315 313 313 313 318 315 311 312 312 310 308 307 306 306 309 310 312 311 310 308 307 306 305 305 305 308 309 309 309 308 308 308 308 308 308 308 306 307 307 307 311 316 318 319 319 318
313 315 314 315 312 314 313 315 314 313 311 310 308 308 308 307 305 308 310 311 311 310 307 306 305 305 305 307 309 308 308 308 308 309 309 309 308 308 307 307 307 307 309 316 316 318 317 314 314
313 315 314 316 316 314 315 314 314 313 312 313 311 309 308 308 307 308 308 310 310 308 306 305 305 306 306 308 309 309 309 310 310 310 308 307 307 306 306 306 306 308 315 317 316 316 314 314 313
314 316 318 315 314 315 314 314 314 313 311 312 310 308 307 307 306 307 307 308 308 306 305 305 306 306 307 308 309 309 310 310 310 308 307 306 306 306 306 306 307 312 315 315 316 313 313 310 312
312 314 314 314 313 314 313 314 314 313 312 311 310 310 308 308 305 304 304 305 306 305 305 306 306 306 308 309 309 309 310 309 309 307 306 306 306 307 306 307 309 314 314 314 314 314 311 312 313
313 313 314 316 314 313 311 313 312 312 313 311 308 308 310 308 306 303 301 302 304 304 305 306 306 306 308 309 309 309 309 308 308 308 306 306 307 307 307 308 313 315 314 313 312 313 313 312 313
316 312 313 316 315 315 311 317 309 312 311 312 311 308 309 307 305 302 301 300 302 304 306 306 306 307 308 309 309 310 310 308 308 309 307 307 307 308 308 309 313 314 314 314 313 313 314 313 312
315 313 313 314 314 313 312 311 312 310 312 313 312 310 308 306 304 302 301 301 302 304 306 306 306 307 308 309 309 310 310 308 310 309 308 309 309 310 311 312 313 314 314 314 313 313 313 313 312
309 311 310 308 309 310 310 312 313 311 313 317 312 310 308 306 303 301 301 302 302 305 306 306 306 307 308 309 309 309 310 311 310 309 310 310 311 313 313 314 314 314 314 313 313 313 313 313 313
310 312 309 308 309 314 310 310 313 312 310 311 311 308 307 305 302 301 300 300 302 305 305 306 306 307 307 308 308 309 310 310 311 310 311 311 312 313 314 316 315 313 314 314 312 312 313 313 312
310 311 310 308 314 314 310 315 315 311 308 307 309 306 307 305 303 301 300 300 302 305 305 306 306 307 307 308 308 309 309 310 311 313 313 314 314 313 316 315 315 313 314 314 313 312 312 313 313
311 312 308 311 301 309 310 308 308 307 307 305 304 308 308 307 303 302 300 301 302 304 305 306 306 307 307 308 308 308 309 310 311 313 313 315 314 315 316 316 316 315 315 314 313 312 312 313 313
310 308 311 307 309 312 310 310 310 307 304 303 303 303 305 306 304 301 299 300 302 304 305 305 306 307 307 307 308 308 309 310 311 312 314 315 316 316 316 316 316 315 315 314 313 312 312 312 313
309 310 309 309 309 313 315 313 306 302 302 301 302 302 302 305 304 302 299 300 301 303 304 304 305 306 307 307 307 308 308 309 310 312 313 314 316 317 315 317 316 316 315 314 314 313 313 312 312
308 309 309 311 310 309 313 312 303 303 301 300 300 300 300 302 302 301 300 300 300 301 302 303 305 305 306 307 306 307 308 308 309 310 312 313 314 317 316 316 317 316 316 316 315 314 314 314 312

GFSSGP_925_thetae_309.txt.gz
Theta_e
309 311 314 314 314 312 314 314 316 317 319 317 316 318 322 321 325 328 320 329 332 334 335 336 336 335 335 335 333 331 330 328 326 324 322 320 320 321 325 330 331 332 333 335 336 337 338 338 337
311 313 315 311 311 310 309 311 315 315 318 317 319 319 321 323 321 320 326 328 332 334 334 334 335 334 333 331 328 325 321 317 314 312 311 310 309 309 310 311 316 326 328 328 332 334 336 337 336
315 314 311 314 310 310 313 313 314 316 318 319 320 318 318 321 318 319 324 328 333 333 334 334 333 330 328 326 322 317 314 311 308 306 304 305 306 308 310 313 313 312 314 321 325 329 331 332 334
314 310 307 314 316 314 312 313 315 321 320 319 319 322 318 318 318 318 323 331 333 333 333 332 329 327 325 320 316 313 309 305 303 302 303 303 305 310 313 315 316 317 317 318 319 322 324 327 330
311 305 308 312 313 312 310 310 311 319 318 319 318 320 319 316 317 319 323 331 333 332 330 327 324 322 318 314 311 308 304 303 302 303 304 305 310 313 313 314 315 315 316 316 317 318 319 321 323
311 308 309 308 308 310 310 309 313 317 316 315 319 319 318 315 317 320 325 330 331 329 324 322 319 316 313 311 307 305 304 303 304 304 305 309 311 311 312 313 314 314 314 315 315 316 317 317 319
311 311 310 311 312 313 313 310 314 314 314 315 316 320 316 314 316 321 325 326 326 323 320 317 316 314 311 308 306 305 304 304 305 305 304 305 305 307 308 309 309 311 313 313 314 314 315 315 316
309 310 313 312 313 314 313 313 313 313 315 311 314 318 317 314 316 321 324 323 321 319 317 316 313 310 308 307 306 305 305 305 305 304 303 304 307 308 309 309 308 310 310 311 311 311 312 313 315
309 315 314 315 315 315 312 314 312 311 313 312 312 313 312 314 315 320 319 318 318 317 315 314 311 310 308 307 306 305 305 305 304 303 305 307 308 309 309 308 308 309 309 309 309 310 310 311 312
313 314 314 312 312 312 312 312 312 312 312 312 312 310 312 313 313 314 313 313 315 315 314 313 311 310 308 307 306 306 305 305 304 305 307 308 309 308 308 308 308 308 308 308 307 307 307 308 309
312 313 311 311 310 311 312 311 310 311 312 310 312 310 311 312 311 311 312 313 314 314 314 313 311 309 308 307 306 306 305 304 305 307 308 308 308 308 308 308 308 308 308 308 306 306 307 309 312
313 311 310 311 311 312 312 310 311 310 311 310 308 308 310 312 312 311 312 312 313 313 313 313 311 309 308 307 306 306 305 305 306 308 309 308 308 308 308 308 308 308 308 307 306 307 309 313 315
313 312 309 309 309 310 310 311 311 310 308 307 306 307 309 310 311 312 313 313 313 312 313 312 311 309 308 307 306 306 305 306 308 309 308 308 308 307 307 307 307 307 307 306 308 312 315 312 310
311 312 311 312 312 311 312 312 311 312 310 310 309 308 307 307 309 310 311 312 312 313 313 312 311 309 308 307 306 305 305 307 309 309 308 308 307 307 307 307 307 307 306 308 313 316 315 315 315
312 314 312 311 311 312 310 313 312 311 309 310 309 308 307 306 306 310 312 312 313 313 312 312 311 309 307 306 306 305 306 309 309 308 308 307 307 307 307 307 307 306 307 309 314 315 317 316 317
313 312 315 313 312 312 312 318 315 310 310 311 310 309 309 308 306 308 310 311 312 312 312 311 310 308 307 306 306 306 308 308 308 308 307 307 308 308 306 307 306 306 307 313 316 315 315 315 316
310 315 314 315 312 313 312 316 314 311 310 313 313 310 310 309 307 308 309 309 311 312 311 310 309 307 306 305 306 307 308 308 308 308 309 308 306 307 307 306 306 307 314 316 316 314 315 315 313
314 314 313 315 314 313 314 314 313 312 311 313 313 310 309 308 308 306 307 307 309 310 311 310 308 306 305 306 307 308 308 309 309 308 308 306 305 305 306 306 308 312 315 316 314 313 315 314 314
311 313 316 315 312 314 314 313 313 313 311 312 312 309 308 307 305 304 304 306 307 308 308 308 306 305 306 306 307 308 309 309 309 306 305 305 305 305 306 307 312 315 315 314 313 311 314 313 316
310 312 312 313 312 313 312 314 314 312 312 311 309 309 308 307 306 303 303 304 306 306 307 306 305 306 306 306 308 309 309 308 307 306 305 305 306 306 306 309 313 315 315 313 314 313 313 313 314
312 311 312 312 312 311 309 316 314 312 309 307 307 306 306 306 306 303 301 301 303 304 305 305 306 306 306 307 308 309 308 308 307 307 306 306 306 306 308 311 313 314 314 313 315 314 313 312 313
312 310 310 313 315 318 310 322 313 312 309 309 307 307 305 305 304 302 301 300 301 303 304 305 306 306 306 307 308 309 309 307 307 307 306 306 306 307 310 312 313 313 313 313 314 314 314 313 311
312 310 312 313 312 313 313 315 317 309 310 309 308 305 304 304 302 302 300 300 302 303 305 306 306 306 306 308 308 309 309 307 307 308 307 307 307 308 310 312 314 313 313 313 313 314 314 313 312
308 309 309 307 309 312 310 313 318 310 307 305 303 302 304 303 301 299 299 301 302 304 305 305 306 306 307 308 308 309 309 307 308 308 307 308 309 309 310 312 312 314 313 313 313 314 314 313 312
310 313 317 313 312 317 308 310 314 305 301 301 301 301 301 302 301 300 299 300 302 304 305 305 305 305 306 307 308 308 309 309 309 308 309 309 310 311 312 313 313 313 313 314 313 313 313 314 313
309 312 314 313 310 311 309 312 311 301 300 299 299 298 297 299 300 299 298 299 302 303 304 305 305 305 305 307 308 307 309 309 309 310 310 311 312 312 312 313 313 313 313 313 313 313 313 314 313
311 313 306 307 300 307 308 307 306 302 301 299 298 296 295 295 296 297 298 299 301 302 303 304 304 304 305 306 307 307 308 309 309 310 310 311 312 313 313 314 313 312 313 313 314 313 313 314 313
309 307 312 308 307 309 305 308 305 304 301 299 297 295 293 293 293 294 294 295 297 299 301 303 303 304 304 305 306 307 307 308 309 310 310 310 312 313 313 314 314 313 313 313 313 313 313 312 313
309 310 307 309 307 307 307 307 303 300 298 297 295 294 292 291 291 291 292 291 291 293 295 297 299 302 303 304 305 306 307 307 308 309 310 310 311 312 313 315 315 314 314 314 314 314 313 312 312
307 309 307 307 307 307 309 308 300 298 296 295 294 293 292 291 290 289 289 289 288 288 289 291 293 295 297 301 303 304 305 306 307 308 309 310 312 312 313 314 315 315 315 314 314 314 313 312 312

GFSSGP_925_thetae_312.txt.gz
Theta_e
312 310 314 319 319 319 318 317 322 323 324 322 322 325 327 327 329 328 324 333 333 337 337 339 338 340 338 336 336 334 333 331 329 327 323 319 317 316 316 320 325 329 331 332 334 335 337 337 338
310 313 317 318 317 317 316 316 319 322 323 322 324 324 325 326 325 326 330 330 335 337 336 337 337 336 335 334 333 329 326 323 319 315 312 310 309 308 309 311 312 314 318 324 327 329 333 334 334
314 313 315 317 315 315 316 319 320 320 321 323 324 323 324 325 324 324 327 331 336 336 336 335 335 334 334 331 327 323 318 315 312 309 306 304 305 306 308 310 313 312 313 319 320 323 326 329 330
314 315 315 317 316 316 318 319 317 323 323 322 324 325 323 322 323 321 328 332 335 335 334 334 333 331 329 326 322 316 313 309 306 304 303 303 305 307 311 312 315 316 317 318 318 319 320 322 325
311 313 312 315 315 316 316 315 315 320 323 324 324 323 323 321 319 321 330 333 335 333 334 332 330 328 326 321 316 311 307 304 303 303 304 305 308 310 313 314 315 316 316 317 317 317 318 318 320
314 313 312 312 313 313 314 314 315 318 321 320 323 323 323 318 321 324 330 333 333 332 330 328 326 324 320 315 311 307 305 304 304 305 305 307 307 306 309 311 312 313 314 315 316 316 317 317 317
314 317 312 313 315 315 316 313 317 319 319 320 321 322 321 319 319 324 328 331 330 328 326 325 324 320 315 311 308 306 305 305 305 305 304 304 303 305 308 309 309 311 312 312 313 314 314 314 315
315 315 315 315 315 315 316 316 315 316 318 315 318 321 321 319 319 324 326 327 326 324 322 322 320 317 314 311 306 305 305 305 305 305 304 304 306 308 310 309 310 311 311 311 311 311 312 312 313
314 315 314 316 317 317 316 317 314 314 317 315 316 316 316 316 319 322 323 323 322 320 319 319 316 313 311 308 307 306 305 305 305 305 305 307 310 311 311 310 308 308 309 308 310 311 309 309 310
317 315 315 315 317 317 315 315 315 315 316 317 317 316 315 315 319 322 323 323 321 320 318 316 313 311 309 307 307 306 306 305 305 305 307 310 310 310 309 309 308 308 308 308 308 307 307 308 311
316 317 314 315 315 314 315 315 314 316 318 317 318 317 316 316 318 321 322 322 321 320 318 314 312 311 309 307 307 306 306 306 307 307 309 310 310 310 310 310 310 311 310 310 310 310 311 311 313
315 315 313 314 313 314 315 314 314 314 316 315 315 314 315 317 318 318 319 319 319 318 317 314 312 310 309 307 307 307 306 307 309 310 310 310 310 310 309 309 310 310 310 310 310 312 315 316 315
315 314 313 314 312 312 312 315 315 315 315 315 314 312 314 315 316 317 317 318 317 316 316 314 312 310 308 307 307 306 307 308 308 310 310 310 310 309 308 309 310 310 309 310 313 316 314 315 316
315 315 314 314 314 313 314 316 314 316 314 315 314 315 315 314 314 315 316 316 316 315 315 314 311 310 308 307 307 307 307 308 310 310 310 310 310 310 310 309 310 309 309 310 313 317 316 317 318
314 316 316 316 315 316 314 318 317 317 314 315 316 316 315 315 313 314 315 316 316 315 314 313 310 309 308 307 306 307 308 309 310 310 309 310 310 310 310 309 309 309 310 312 316 317 315 315 316
316 316 317 316 314 314 314 322 319 315 316 318 319 319 318 318 315 314 313 314 315 315 313 312 309 309 307 306 307 307 308 310 310 309 309 310 310 310 309 309 309 309 310 314 315 315 313 315 316
316 319 317 318 315 316 314 321 318 315 317 319 320 320 318 317 316 314 312 311 313 313 313 311 309 308 307 306 306 307 308 309 309 310 310 309 308 307 309 308 309 311 315 315 314 314 315 314 315
320 318 318 320 317 316 319 319 320 319 317 318 319 318 316 314 313 309 309 309 311 312 311 310 308 307 307 306 307 308 309 310 310 310 309 308 307 307 308 308 311 313 314 314 314 314 314 316 315
314 317 319 318 314 317 318 318 318 319 318 317 315 315 314 313 310 308 307 308 309 310 309 308 307 307 307 308 309 310 311 311 310 308 307 307 307 306 307 310 313 314 314 314 314 314 315 315 317
315 316 317 316 314 316 318 319 319 316 314 313 313 313 312 313 312 308 307 307 308 308 308 307 307 307 308 308 308 310 311 310 309 307 307 306 307 306 308 311 314 314 313 313 314 314 315 317 316
315 315 316 315 315 314 316 325 321 314 313 312 310 311 310 311 310 308 306 306 307 307 307 307 307 307 307 306 308 309 310 310 310 309 307 307 307 307 309 312 314 314 313 313 314 314 316 317 315
314 313 313 314 318 326 316 340 326 316 315 311 308 309 310 309 308 307 306 306 306 306 307 307 307 307 306 307 309 310 312 311 310 309 308 308 307 308 311 313 314 315 313 313 314 314 315 316 316
314 312 314 316 319 319 319 328 327 314 316 309 307 307 307 308 306 305 304 304 305 306 307 307 307 306 306 308 309 310 311 310 309 308 308 308 308 308 311 313 312 314 314 313 314 315 315 314 313
311 314 313 314 317 326 318 321 329 313 307 307 306 305 304 305 306 304 303 304 305 306 307 307 307 306 306 308 308 309 310 309 309 310 309 310 310 310 310 312 314 315 315 315 314 314 314 314 312
312 316 324 325 326 326 311 316 319 306 305 304 303 303 302 302 303 304 304 305 306 306 306 306 306 306 306 307 307 308 309 309 308 310 310 311 311 312 313 313 312 313 314 314 315 315 315 315 313
314 317 323 326 320 317 312 317 314 304 302 301 301 300 300 299 300 301 302 303 304 304 305 306 306 306 305 306 307 307 308 309 310 310 310 311 312 313 314 313 313 312 314 314 314 315 315 314 314
315 317 311 312 307 314 314 312 305 305 303 301 300 299 298 297 298 297 297 297 299 300 302 303 304 305 305 305 306 306 307 307 309 309 310 311 311 312 313 314 313 313 313 314 314 314 315 313 314
312 311 315 315 318 315 309 310 312 307 304 300 299 298 296 296 295 295 294 294 294 294 295 297 298 301 302 303 304 305 306 306 307 308 309 310 311 312 312 314 314 312 312 312 314 315 314 313 313
311 313 311 313 311 310 310 310 305 304 301 300 298 296 295 295 294 293 293 292 291 292 292 293 294 295 296 298 302 304 305 305 306 307 308 309 311 311 312 313 315 314 313 313 314 314 314 313 312
308 312 311 312 312 310 311 311 301 300 298 297 296 295 294 293 293 292 292 291 291 290 290 290 291 292 293 295 297 301 303 304 305 306 307 308 309 311 312 313 313 315 314 314 314 314 313 314 313

GFSSGP_925_thetae_315.txt.gz
Theta_e
316 314 316 319 322 320 322 319 322 324 323 323 323 326 327 327 328 331 327 335 338 338 339 340 338 337 340 339 336 335 334 332 330 328 324 320 316 314 313 313 312 313 316 324 329 331 333 336 335
315 315 317 319 320 321 319 319 320 325 325 325 325 326 326 327 327 331 332 334 337 338 339 340 338 339 337 336 336 333 330 327 323 318 314 311 309 308 308 308 308 309 313 320 322 323 326 329 332
315 315 317 318 317 318 318 318 323 322 322 325 326 326 325 326 326 328 333 335 338 338 338 338 337 336 335 334 333 327 323 319 315 311 307 306 305 306 306 306 308 313 318 319 320 320 321 322 325
314 316 315 316 317 317 318 320 320 323 324 324 325 325 325 325 326 326 332 337 338 338 336 335 335 334 333 331 326 321 317 312 308 305 304 305 306 307 307 308 313 317 318 318 318 319 319 320 320
314 316 315 315 316 317 317 318 318 322 325 325 325 324 325 324 323 326 333 336 338 336 334 334 333 332 329 326 322 316 311 307 305 304 305 306 307 306 307 312 315 315 315 316 317 318 318 318 318
314 314 313 314 315 315 315 316 316 318 323 323 323 324 325 322 325 327 332 336 336 335 334 333 331 328 326 321 316 311 307 305 305 305 305 305 305 304 307 311 312 313 314 315 315 315 316 316 317
317 313 313 314 314 315 316 316 315 318 320 322 322 323 323 322 324 328 332 335 335 334 333 330 328 325 321 316 312 307 306 305 305 305 305 304 304 305 307 309 309 312 313 313 312 312 313 313 314
317 316 314 313 314 315 318 318 317 318 320 316 320 321 323 323 325 328 331 333 333 331 330 328 326 322 319 314 309 307 306 305 305 305 305 305 306 311 312 311 312 310 312 312 312 312 312 311 311
317 315 315 315 315 316 318 319 317 317 319 318 319 320 319 320 324 327 329 330 329 327 326 325 323 320 317 315 310 306 306 306 306 308 309 310 312 313 313 312 310 308 308 308 309 312 312 311 310
314 315 315 316 316 317 318 318 318 317 318 319 319 319 318 319 323 326 327 327 327 325 324 323 320 317 315 311 310 311 310 310 310 311 312 312 313 313 311 312 311 311 311 311 311 311 311 312 313
314 317 316 315 316 316 317 317 317 318 319 320 319 320 319 319 320 323 324 325 325 324 323 321 318 315 314 311 311 311 310 310 311 312 312 313 313 313 312 311 312 312 312 312 312 313 314 314 314
316 314 314 316 315 315 316 316 317 316 318 318 317 317 317 319 319 320 321 323 324 323 322 320 317 315 313 312 310 311 310 311 312 312 312 313 313 312 311 310 311 312 311 312 313 314 314 314 315
316 316 315 315 314 314 314 314 316 317 317 317 317 315 316 317 318 319 319 320 321 322 321 320 317 314 313 311 311 310 311 311 312 312 313 312 312 312 312 311 311 312 311 312 313 315 317 318 318
316 316 316 315 315 315 315 316 316 318 318 318 316 318 318 318 318 318 318 319 320 320 319 319 317 314 312 311 310 311 311 311 312 313 313 312 312 312 311 311 311 311 312 312 315 317 317 316 317
316 316 317 317 317 317 316 319 318 319 318 318 319 319 318 318 318 317 318 319 319 319 318 318 316 314 311 310 310 311 311 311 313 313 312 312 312 311 311 311 311 311 312 314 316 316 314 315 315
316 316 317 318 317 316 316 321 321 318 319 321 321 321 321 321 320 319 318 317 318 319 318 317 314 312 310 310 310 311 311 312 312 312 312 312 311 310 310 311 311 311 313 314 315 316 314 315 315
318 319 317 319 317 318 317 323 321 318 320 321 322 321 320 319 317 314 313 314 315 317 317 316 312 311 310 310 311 311 311 312 312 313 312 311 310 310 310 311 311 314 315 315 316 314 315 316 315
319 317 318 320 320 319 321 321 321 321 321 320 319 318 317 316 314 312 311 311 313 315 316 314 311 310 310 311 311 311 312 313 313 312 311 310 309 309 310 311 314 314 314 315 315 315 316 316 315
316 318 318 319 317 319 321 321 320 320 317 317 316 316 315 315 313 311 310 311 313 314 314 312 311 310 311 311 312 312 313 313 313 310 309 309 309 309 310 314 314 314 314 315 316 315 316 316 317
316 319 320 318 316 316 319 320 320 317 314 312 314 314 313 312 312 310 310 311 312 312 312 311 311 311 311 311 311 312 313 313 312 309 309 309 309 310 310 314 315 314 315 316 316 316 317 318 316
314 316 319 316 316 317 319 325 319 316 313 311 311 311 311 311 310 310 309 310 311 311 311 310 310 310 310 310 311 312 313 313 312 311 310 309 309 310 311 314 315 315 316 316 316 315 317 318 316
313 314 315 315 316 322 319 341 326 319 316 312 310 310 310 310 309 308 308 309 310 310 310 310 310 310 310 310 312 313 314 314 312 311 310 310 309 311 312 313 314 316 314 315 316 314 315 317 317
314 314 315 316 318 321 322 329 329 316 318 312 310 308 307 307 308 307 308 308 309 310 310 310 310 309 310 310 311 313 313 312 311 310 311 310 310 311 312 314 313 314 314 313 314 316 316 315 314
314 316 317 318 320 328 325 326 335 317 310 310 308 306 305 305 306 307 307 308 309 309 309 309 309 309 309 310 310 311 312 312 311 312 312 312 312 312 312 314 314 314 314 314 314 316 316 316 314
315 317 326 327 327 326 314 319 320 309 307 306 305 305 303 303 304 305 306 307 307 307 308 308 308 308 308 308 309 310 310 310 310 312 312 313 313 313 314 314 313 314 314 314 314 315 316 317 315
316 318 326 329 327 323 313 320 317 306 304 304 303 302 302 301 301 300 300 301 302 303 304 306 307 307 307 307 308 309 309 309 310 310 311 312 313 313 314 314 313 313 313 314 314 314 316 317 316
316 317 314 314 312 316 317 313 307 306 304 303 302 301 300 299 298 298 297 297 297 298 299 300 301 303 304 305 306 307 308 309 309 310 309 310 311 312 312 313 315 314 313 314 314 315 315 315 315
314 314 317 318 322 319 314 313 316 308 306 303 301 300 299 298 297 297 296 295 295 295 296 296 297 298 299 299 302 305 307 308 308 309 309 309 310 311 311 313 314 314 313 312 313 314 314 315 315
313 314 313 314 315 312 310 312 307 306 303 302 299 298 297 297 296 296 295 294 293 293 293 293 294 294 295 298 299 302 304 306 306 308 308 309 309 311 311 312 313 314 314 313 313 314 314 315 314
311 311 313 311 314 312 312 313 304 302 300 300 298 297 296 295 295 294 293 293 292 292 292 292 291 292 292 294 296 297 299 302 304 305 306 307 308 309 310 311 312 313 314 314 313 313 314 315 315